HAWK-7B

Last updated on Sun Jun 21 2026 00:03:43 GMT+0000 (Coordinated Universal Time)

1 56193U 23054R 26171.25497021 .00004607 00000+0 17452-3 0 9993 2 56193 97.2721 56.7790 0003591 63.2325 296.9281 15.27385586177492
UTC large
Height (km)
Speed (km/s)
/
Latitude / Longitude
Inclination (degrees)
Orbital Period (minutes)
Azimuth
Elevation
Range (km)
Doppler Factor

Next 0 passes for location: London (51.5072 / 0.1276)

No passes found over London.
HAWK-7B